Regional Weather Roundup
Issued by NWS Mobile, AL

Home | Current Version | Previous Version | Text Only | Print | Product List | Glossary On
Versions: 1 2 3 4 5 6 7 8 9 10 11 12 13 14 15 16 17 18 19 20 21 22 23 24 25 26 27 28 29 30 31 32 33 34 35 36 37 38 39 40 41 42 43 44 45 46 47 48 49 50
000
ASUS44 KMOB 240810
RWRMOB
REGIONAL WEATHER ROUNDUP
NATIONAL WEATHER SERVICE MOBILE AL
300 AM CDT THU JUL 24 2014

NOTE: "FAIR" INDICATES FEW OR NO CLOUDS BELOW 12,000 FEET WITH NO
      SIGNIFICANT WEATHER AND/OR OBSTRUCTIONS TO VISIBILITY.

  * THESE STATIONS ARE PART OF THE UNIVERSITY OF SOUTH ALABAMA
    MESONET AND ARE NOT UNDER NWS OR FAA QUALITY CONTROL.

ALZ061>064-240900-
COASTAL ALABAMA

CITY           SKY/WX    TMP DP  RH WIND       PRES   REMARKS
MOBILE REG APT PTCLDY    71  71 100 W3        29.99S
BROOKLEY FIELD CLEAR     72  72 100 NW3       29.99F
USA CAMPUS*      N/A     72  70  94 CALM      29.98F
DOG RIVER*       N/A     72  72 100 CALM      29.98F


CITY           SKY/WX    TMP DP  RH WIND       PRES   REMARKS
MOUNT VERNON*    N/A     66  64  94 CALM      29.99S
SARALAND*      NOT AVBL
BAY MINETTE*   NOT AVBL
LOXLEY*          N/A    N/A N/A N/A CALM      29.99S
ROBERTSDALE*     N/A    N/A N/A N/A CALM      29.98F
FAIRHOPE*        N/A     70  70 100 CALM      29.97F
ELBERTA*       NOT AVBL
FOLEY*         NOT AVBL
GRAND BAY*       N/A     72  70  94 CALM      29.96F
DAUPHIN ISLND* NOT AVBL
BON SCOUR NWR* NOT AVBL
GULF SHORES    CLEAR     76  73  88 CALM      29.97F

$$

ALZ051>060-240900-
INTERIOR SOUTHWEST AND SOUTH CENTRAL ALABAMA

CITY           SKY/WX    TMP DP  RH WIND       PRES   REMARKS
GREENVILLE     CLEAR     73  70  90 CALM      29.99F FOG
EVERGREEN      CLEAR     72  70  93 CALM      30.00S FOG
CASTLEBERRY*   NOT AVBL
ATMORE*          N/A     70  70 100 CALM      30.01S
DIXIE*         NOT AVBL
ANDALUSIA/OPP  CLEAR     75  70  84 CALM      29.99F
ANDALUSIA*     NOT AVBL
FLORALA APT    CLEAR     73  71  93 CALM      30.00F
FLORALA*         N/A     70  70 100 CALM      29.97F

$$

FLZ001>006-240900-
WESTERN FLORIDA PANHANDLE

CITY           SKY/WX    TMP DP  RH WIND       PRES   REMARKS
PENSACOLA      CLEAR     74  72  93 CALM      29.98S
NAS PENSACOLA  CLEAR     74  72  93 CALM      29.97F
MILTON         CLEAR     71  69  93 CALM      29.99S
WHTNG S FIELD  CLEAR     74  71  91 CALM      29.99S


CITY           SKY/WX    TMP DP  RH WIND       PRES   REMARKS
WALNUT HILL*   NOT AVBL
JAY*           NOT AVBL
DUKE FIELD     PTCLDY    73  73 100 SE2       29.99S
CRESTVIEW      CLEAR     71  70  96 CALM      30.00F
VALPARAISO     PTCLDY    76  73  90 NE2       29.98F
DESTIN         PTCLDY    81  75  82 SW3       29.98S

$$

MSZ076-079-240900-
INTERIOR SOUTHEAST MISSISSIPPI

CITY           SKY/WX    TMP DP  RH WIND       PRES   REMARKS
LEAKESVILLE*   NOT AVBL
AGRICOLA*      NOT AVBL

$$

MARINE OBSERVATIONS

STATION/POSITION TIME  TEMP    WIND        PRES    WAVE
                       AIR SEA DIR/SP/G            HT/PER
                 (UTC) (F)     (DEG/KT/KT) (MB)    (FT/S)
PASCAGOULA       0700   80     180/  5/  7 1014.6F
PETIT BOIS ISLND 0700   81     200/  9/ 10 1015.2F
GRAND BAY        0700   80     200/  7     1016.0S
KATRINA CUT      0700   80     210/  8     1015.9S
CEDAR POINT      0700   79     210/ 11     1015.6R
E DAUPHIN ISLAND 0700   80     210/  7/ 10 1015.2F
MIDDLE BAY LIGHT 0700   80     210/ 10     1014.6F
USCG MOBILE BAY  0700   76 83  270/  2/  2 1014.2S
STATE DOCKS      0700   77 84              1015.0F
MEAHER PARK      0700   80     190/  4     1014.9F
WEEKS BAY        0700   66                   N/A
FORT MORGAN      0700   80     220/ 11/ 12 1015.0F
12 S ORANGE BCH  0800   82 83  240/ 10/ 14 1015.0F   1/ 3
PENSACOLA BAY    0700   82 85  280/  3/  8 1015.4F
64 S DAUPHIN ISL 0748   82 84  200/ 10/ 12 1015.2F
67 S FORT MORGAN 0700   75                 1018.3S

$$

SELECTED LOCATIONS ACROSS THE REGION

CITY           SKY/WX    TMP DP  RH WIND       PRES   REMARKS
NEW ORLEANS    PTCLDY    76  72  87 SE3       29.96F
GULFPORT       CLEAR     76  72  87 CALM      29.96F
PASCAGOULA AP  CLEAR     71  70  96 CALM      29.97F
PASCAGOULA*      N/A     73  73 100 CALM      29.96F
HATTIESBURG    CLEAR     73  71  93 SE3       29.98F
LAUREL         CLEAR     72  68  88 CALM      29.99F
MERIDIAN       CLEAR     71  69  93 CALM      29.98S
JACKSON        CLEAR     72  70  93 N6        29.97F
MONTGOMERY     CLEAR     74  71  91 W3        29.98F FOG
TROY           CLEAR     72  70  93 S3        30.00F FOG
KINSTON*       NOT AVBL
GENEVA*          N/A     70  68  94 CALM      30.01F
ASHFORD*       NOT AVBL
DOTHAN         CLEAR     74  72  93 W5        30.03F
PANAMA CITY    PTCLDY    75  72  90 CALM      29.98S

$$



USA.gov is the U.S. government's official web portal to all federal, state and local government web resources and services.